Location: Henry
(41.9986°N, 104.0474°W)
Time: 03:28:48
(UTC+00:00)

BlueWalker 3 - Visible Passes

Search period start: 08 October 2024 00:00
Search period end: 18 October 2024 00:00
Orbit: 473 x 485 km, 53.2° (Epoch: 07 October)

Date Brightness Start Highest point End Pass type
(mag) Time Alt. Az. Time Alt. Az. Time Alt. Az.
08 Oct 5.2 09:57:17 11° ENE 09:57:17 11° ENE 09:57:29 10° ENE visible
08 Oct 2.7 11:31:29 32° NW 11:32:03 34° NNW 11:35:28 10° NE visible
09 Oct 3.0 11:04:30 33° N 11:04:30 33° N 11:07:13 10° NE visible
10 Oct 4.1 10:37:26 21° NNE 10:37:26 21° NNE 10:38:55 10° NE visible
10 Oct 3.9 12:11:44 10° NW 12:14:07 16° N 12:16:29 10° NNE visible
11 Oct 5.0 10:10:16 12° NE 10:10:16 12° NE 10:10:34 10° NE visible
11 Oct 3.9 11:44:28 14° NW 11:45:41 17° NNW 11:48:08 10° NNE visible
12 Oct 3.9 11:17:14 17° NNW 11:17:14 17° NNW 11:19:43 10° NNE visible
13 Oct 4.3 10:49:56 15° N 10:49:56 15° N 10:51:17 10° NNE visible
13 Oct 4.2 12:25:33 10° NNW 12:27:47 15° N 12:30:00 10° NE visible
14 Oct 5.0 10:22:36 11° NNE 10:22:36 11° NNE 10:22:48 10° NNE visible
14 Oct 4.2 11:57:02 10° NNW 11:59:12 15° N 12:01:23 10° NE visible
15 Oct 4.2 11:29:25 13° NNW 11:30:35 15° N 11:32:43 10° NE visible
16 Oct 4.3 11:02:01 14° N 11:02:01 14° N 11:04:02 10° NE visible
16 Oct 3.6 12:37:41 10° NW 12:40:52 26° NNE 12:44:02 10° E visible
17 Oct 4.8 10:34:37 12° NNE 10:34:37 12° NNE 10:35:18 10° NE visible
17 Oct 3.7 12:09:06 10° NW 12:12:11 24° NNE 12:15:17 10° E visible
